CW3467 Weather Reports


Display with metric or nautical units.
time (UTC)temp
F
wind
direction
speed
MPH
gust
MPH
rain 1hr
in
rain 24hr
in
rain mn
in
humidity
%
barometer
mb
20260902165002 92 201 2.0 6.0 0.00 0.00 0.00 40 1021.1
20260902164524 92 224 2.0 6.0 0.00 0.00 0.00 40 1021.3
20260902164002 92 259 2.0 7.0 0.00 0.00 0.00 41 1021.4
20260902163523 92 255 2.0 7.0 0.00 0.00 0.00 40 1021.3
20260902163003 92 275 2.0 7.0 0.00 0.00 0.00 41 1021.3
20260902162502 93 104 1.0 6.0 0.00 0.00 0.00 42 1021.4
20260902162003 93 80 1.0 7.0 0.00 0.00 0.00 41 1021.5
20260902161503 93 54 2.0 7.0 0.00 0.00 0.00 42 1021.4
20260902161003 94 155 2.0 6.0 0.00 0.00 0.00 41 1021.6
20260902160503 93 131 2.0 9.0 0.00 0.00 0.00 42 1021.4
20260902160003 93 293 3.0 9.0 0.00 0.00 0.00 42 1021.4
20260902155503 92 284 4.0 9.0 0.00 0.00 0.00 43 1021.3
20260902155002 92 286 4.0 10.0 0.00 0.00 0.00 42 1021.3
20260902154503 94 281 3.0 10.0 0.00 0.00 0.00 41 1021.6
20260902154024 93 257 2.0 8.0 0.00 0.00 0.00 40 1021.4
20260902153503 93 263 2.0 8.0 0.00 0.00 0.00 40 1021.3
20260902153003 94 292 3.0 8.0 0.00 0.00 0.00 40 1021.5
20260902152524 93 300 3.0 9.0 0.00 0.00 0.00 41 1021.5
20260902152003 93 294 3.0 9.0 0.00 0.00 0.00 40 1021.4
20260902151503 94 283 2.0 7.0 0.00 0.00 0.00 42 1021.6
20260902151003 95 313 1.0 6.0 0.00 0.00 0.00 37 1021.6
20260902150502 95 49 1.0 9.0 0.00 0.00 0.00 38 1021.4
20260902150002 94 308 2.0 9.0 0.00 0.00 0.00 39 1021.6
20260902145502 95 276 2.0 7.0 0.00 0.00 0.00 36 1021.6
20260902145003 95 250 2.0 8.0 0.00 0.00 0.00 36 1021.5
20260902144503 95 259 2.0 8.0 0.00 0.00 0.00 37 1021.6
20260902144003 94 266 2.0 6.0 0.00 0.00 0.00 36 1021.5
20260902143503 94 261 2.0 7.0 0.00 0.00 0.00 35 1021.5
20260902143024 94 254 2.0 7.0 0.00 0.00 0.00 35 1021.6
20260902142503 94 278 3.0 7.0 0.00 0.00 0.00 34 1021.8
20260902142003 94 293 2.0 7.0 0.00 0.00 0.00 34 1021.7
20260902141503 94 276 2.0 6.0 0.00 0.00 0.00 34 1021.7
20260902141002 95 328 2.0 4.0 0.00 0.00 0.00 32 1021.8
20260902140524 94 306 2.0 7.0 0.00 0.00 0.00 33 1022.0
20260902140003 94 298 3.0 8.0 0.00 0.00 0.00 33 1022.0
20260902135503 94 293 4.0 9.0 0.00 0.00 0.00 33 1022.0
20260902135023 93 282 3.0 9.0 0.00 0.00 0.00 35 1022.0
20260902134524 94 279 2.0 9.0 0.00 0.00 0.00 35 1022.2
20260902134003 93 186 2.0 9.0 0.00 0.00 0.00 36 1022.1
20260902133503 94 289 3.0 13.0 0.00 0.00 0.00 36 1022.1
20260902133003 93 291 3.0 13.0 0.00 0.00 0.00 34 1022.1
20260902132503 93 280 3.0 10.0 0.00 0.00 0.00 36 1022.2
20260902132003 93 308 2.0 10.0 0.00 0.00 0.00 35 1022.4
20260902131502 93 318 2.0 9.0 0.00 0.00 0.00 35 1022.1
20260902131002 93 292 2.0 9.0 0.00 0.00 0.00 36 1022.2
20260902130503 92 294 2.0 7.0 0.00 0.00 0.00 37 1022.5
20260902130003 92 275 2.0 7.0 0.00 0.00 0.00 38 1022.4
20260902125502 92 274 2.0 7.0 0.00 0.00 0.00 37 1022.3
20260902125003 92 267 2.0 7.0 0.00 0.00 0.00 38 1022.4
20260902124524 91 253 2.0 7.0 0.00 0.00 0.00 41 1022.5
20260902124002 92 242 2.0 6.0 0.00 0.00 0.00 41 1022.5
20260902123502 92 258 1.0 6.0 0.00 0.00 0.00 40 1022.7
20260902123024 91 276 2.0 6.0 0.00 0.00 0.00 42 1022.9
20260902122524 91 303 2.0 6.0 0.00 0.00 0.00 44 1022.9
20260902122003 89 219 2.0 8.0 0.00 0.00 0.00 43 1022.9
20260902121502 90 278 2.0 8.0 0.00 0.00 0.00 41 1022.9
20260902121003 90 293 2.0 8.0 0.00 0.00 0.00 44 1023.0
20260902120502 89 265 1.0 8.0 0.00 0.00 0.00 45 1022.9
20260902120002 89 252 1.0 8.0 0.00 0.00 0.00 45 1023.2
20260902115502 89 86 2.0 8.0 0.00 0.00 0.00 47 1023.1
20260902115003 88 79 2.0 6.0 0.00 0.00 0.00 47 1023.1
20260902114503 88 258 1.0 4.0 0.00 0.00 0.00 47 1023.3
20260902114024 89 257 2.0 4.0 0.00 0.00 0.00 45 1023.4
20260902113503 89 245 1.0 4.0 0.00 0.00 0.00 49 1023.4
20260902113002 87 252 1.0 4.0 0.00 0.00 0.00 51 1023.1
20260902112502 87 253 1.0 6.0 0.00 0.00 0.00 53 1023.3
20260902112002 87 241 1.0 6.0 0.00 0.00 0.00 53 1023.3
20260902111502 87 256 1.0 3.0 0.00 0.00 0.00 50 1023.7
20260902111023 85 255 1.0 4.0 0.00 0.00 0.00 54 1023.5
20260902110503 86 248 1.0 4.0 0.00 0.00 0.00 53 1023.7
20260902110004 86 254 1.0 3.0 0.00 0.00 0.00 53 1023.6
20260902105524 85 260 1.0 3.0 0.00 0.00 0.00 54 1023.5
20260902105002 85 264 1.0 4.0 0.00 0.00 0.00 54 1023.7
20260902104502 83 254 1.0 4.0 0.00 0.00 0.00 57 1023.7
20260902104002 84 243 1.0 3.0 0.00 0.00 0.00 54 1023.8
20260902103502 83 266 1.0 4.0 0.00 0.00 0.00 55 1023.8
20260902103002 83 255 1.0 4.0 0.00 0.00 0.00 56 1023.9
20260902102502 83 241 1.0 3.0 0.00 0.00 0.00 57 1023.8
20260902102003 82 263 1.0 3.0 0.00 0.00 0.00 56 1024.2
20260902101502 81 348 1.0 4.0 0.00 0.00 0.00 58 1024.2
20260902101003 83 267 1.0 4.0 0.00 0.00 0.00 57 1024.1
20260902100524 83 238 1.0 3.0 0.00 0.00 0.00 56 1024.2
20260902100002 81 179 1.0 3.0 0.00 0.00 0.00 57 1024.1
20260902095503 80 5 1.0 3.0 0.00 0.00 0.00 59 1024.2
20260902095003 81 255 1.0 3.0 0.00 0.00 0.00 59 1024.1
20260902094503 80 246 1.0 3.0 0.00 0.00 0.00 60 1024.4
20260902094002 79 220 1.0 3.0 0.00 0.00 0.00 60 1024.4
20260902093502 78 156 1.0 3.0 0.00 0.00 0.00 63 1024.5
20260902093002 77 247 1.0 3.0 0.00 0.00 0.00 64 1024.4
20260902092502 78 250 1.0 2.0 0.00 0.00 0.00 63 1024.4
20260902092002 78 239 0.0 2.0 0.00 0.00 0.00 65 1024.5
20260902091503 77 234 0.0 2.0 0.00 0.00 0.00 66 1024.4
20260902091002 76 236 1.0 2.0 0.00 0.00 0.00 66 1024.4
20260902090502 76 231 0.0 2.0 0.00 0.00 0.00 67 1024.4
20260902090003 74 226 0.0 2.0 0.00 0.00 0.00 69 1024.5
20260902085503 75 254 1.0 3.0 0.00 0.00 0.00 69 1024.5
20260902085003 74 253 1.0 3.0 0.00 0.00 0.00 70 1024.0
20260902084502 75 250 1.0 3.0 0.00 0.00 0.00 69 1024.1
20260902084002 74 253 1.0 3.0 0.00 0.00 0.00 70 1024.2
20260902083502 75 252 1.0 3.0 0.00 0.00 0.00 69 1024.1
20260902083002 74 245 1.0 2.0 0.00 0.00 0.00 70 1023.9
20260902082502 74 239 1.0 2.0 0.00 0.00 0.00 72 1024.2
20260902082002 74 243 1.0 2.0 0.00 0.00 0.00 70 1024.0
20260902081503 72 245 1.0 2.0 0.00 0.00 0.00 72 1024.4
20260902081002 72 251 1.0 3.0 0.00 0.00 0.00 72 1024.1
20260902080524 72 253 1.0 3.0 0.00 0.00 0.00 73 1024.0
20260902080002 71 247 1.0 2.0 0.00 0.00 0.00 73 1024.1
20260902075502 71 248 1.0 3.0 0.00 0.00 0.00 74 1024.0
20260902075024 71 247 1.0 3.0 0.00 0.00 0.00 75 1023.9
20260902074503 70 243 1.0 2.0 0.00 0.00 0.00 76 1023.8
20260902074002 69 242 1.0 2.0 0.00 0.00 0.00 79 1023.9
20260902073502 68 250 1.0 2.0 0.00 0.00 0.00 80 1024.1
20260902073002 68 250 1.0 2.0 0.00 0.00 0.00 81 1024.0
20260902072502 67 236 1.0 2.0 0.00 0.00 0.00 81 1023.9
20260902072024 67 241 1.0 2.0 0.00 0.00 0.00 81 1023.7
20260902071502 67 239 1.0 2.0 0.00 0.00 0.00 82 1023.7
20260902071002 67 233 0.0 1.0 0.00 0.00 0.00 83 1023.9
20260902070502 66 233 0.0 1.0 0.00 0.00 0.00 83 1023.8
20260902070003 66 232 0.0 1.0 0.00 0.00 0.00 84 1023.7
20260902065502 66 232 0.0 1.0 0.00 0.00 0.00 84 1023.5
20260902065002 65 0 0.0 0.0 0.00 0.00 0.00 84 1023.6
20260902064502 65 229 0.0 1.0 0.00 0.00 0.00 85 1023.7
20260902064003 65 225 0.0 1.0 0.00 0.00 0.00 85 1023.6
20260902063502 65 225 0.0 1.0 0.00 0.00 0.00 86 1023.5
20260902063023 64 222 0.0 1.0 0.00 0.00 0.00 86 1023.5
20260902062502 64 219 0.0 1.0 0.00 0.00 0.00 86 1023.6
20260902062024 64 0 0.0 0.0 0.00 0.00 0.00 86 1023.5
20260902061502 64 0 0.0 0.0 0.00 0.00 0.00 86 1023.6
20260902061003 64 226 0.0 1.0 0.00 0.00 0.00 86 1023.5
20260902060502 64 227 0.0 1.0 0.00 0.00 0.00 86 1023.4
20260902060002 64 228 0.0 1.0 0.00 0.00 0.00 87 1023.4
20260902055502 64 228 0.0 1.0 0.00 0.00 0.00 87 1023.4
20260902055002 64 225 0.0 1.0 0.00 0.00 0.00 87 1023.3
20260902054502 64 222 0.0 1.0 0.00 0.00 0.00 87 1023.1
20260902054002 64 222 0.0 1.0 0.00 0.00 0.00 86 1023.3
20260902053503 64 223 0.0 1.0 0.00 0.00 0.00 86 1023.3
20260902053002 64 222 0.0 1.0 0.00 0.00 0.00 86 1023.1
20260902052523 64 221 0.0 1.0 0.00 0.00 0.00 86 1023.0
20260902052003 64 0 0.0 0.0 0.00 0.00 0.00 87 1023.0
20260902051523 64 0 0.0 0.0 0.00 0.00 0.00 87 1023.0
20260902051002 64 0 0.0 0.0 0.00 0.00 0.00 86 1023.0
20260902050502 64 0 0.0 0.0 0.00 0.00 0.00 86 1022.8
20260902050004 64 0 0.0 0.0 0.00 0.00 0.00 86 1022.8
20260902045502 65 0 0.0 0.0 0.00 0.00 0.00 86 1022.8
20260902045002 65 229 0.0 1.0 0.00 0.00 0.00 85 1022.7
20260902044502 65 222 0.0 1.0 0.00 0.00 0.00 84 1022.5
20260902044002 65 222 0.0 1.0 0.00 0.00 0.00 84 1022.7
20260902043523 65 221 1.0 1.0 0.00 0.00 0.00 84 1022.7
20260902043003 65 222 1.0 1.0 0.00 0.00 0.00 85 1022.8
20260902042502 65 225 0.0 1.0 0.00 0.00 0.00 85 1022.7
20260902042002 65 0 0.0 0.0 0.00 0.00 0.00 86 1022.5
20260902041523 65 227 0.0 1.0 0.00 0.00 0.00 86 1022.5
20260902041023 65 227 0.0 1.0 0.00 0.00 0.00 85 1022.7
20260902040502 65 223 0.0 1.0 0.00 0.00 0.00 85 1022.9
20260902040002 65 223 0.0 1.0 0.00 0.00 0.00 85 1022.7
20260902035502 65 223 0.0 2.0 0.00 0.00 0.00 85 1022.8
20260902035002 65 223 0.0 2.0 0.00 0.00 0.00 85 1022.8
20260902034502 65 220 0.0 1.0 0.00 0.00 0.00 85 1022.8
20260902034002 65 0 0.0 0.0 0.00 0.00 0.00 85 1023.0
20260902033523 65 0 0.0 0.0 0.00 0.00 0.00 84 1022.7
20260902033002 65 0 0.0 0.0 0.00 0.00 0.00 83 1022.7
20260902032502 66 223 0.0 1.0 0.00 0.00 0.00 83 1022.5
20260902032002 66 224 0.0 1.0 0.00 0.00 0.00 82 1022.9
20260902031502 67 222 0.0 1.0 0.00 0.00 0.00 82 1022.8
20260902031002 67 223 1.0 2.0 0.00 0.00 0.00 82 1022.7
20260902030502 67 224 1.0 2.0 0.00 0.00 0.00 82 1022.8
20260902030002 67 222 0.0 1.0 0.00 0.00 0.00 82 1022.4
20260902025523 67 221 0.0 1.0 0.00 0.00 0.00 82 1022.5
20260902025002 67 222 1.0 1.0 0.00 0.00 0.00 82 1022.5
20260902024523 67 222 1.0 1.0 0.00 0.00 0.00 82 1022.7
20260902024002 67 225 0.0 1.0 0.00 0.00 0.00 82 1022.8
20260902023502 67 225 0.0 1.0 0.00 0.00 0.00 82 1022.8
20260902023023 67 192 0.0 1.0 0.00 0.00 0.00 81 1022.8
20260902022502 67 200 0.0 1.0 0.00 0.00 0.00 81 1022.7
20260902022023 67 213 0.0 2.0 0.00 0.00 0.00 81 1022.8
20260902021502 67 217 0.0 2.0 0.00 0.00 0.00 81 1022.5
20260902021002 67 224 0.0 1.0 0.00 0.00 0.00 82 1022.4
20260902020502 67 224 0.0 1.0 0.00 0.00 0.00 82 1022.7
20260902020002 67 0 0.0 0.0 0.00 0.00 0.00 82 1022.8
20260902015502 67 0 0.0 0.0 0.00 0.00 0.00 82 1022.8
20260902015002 67 0 0.0 0.0 0.00 0.00 0.00 82 1022.8
20260902014502 67 219 0.0 1.0 0.00 0.00 0.00 82 1022.5
20260902014023 67 219 0.0 1.0 0.00 0.00 0.00 81 1022.5
20260902013502 67 234 0.0 1.0 0.00 0.00 0.00 81 1022.8
20260902013002 67 228 0.0 1.0 0.00 0.00 0.00 81 1022.5
20260902012502 67 221 0.0 1.0 0.00 0.00 0.00 81 1022.7
20260902012002 67 224 0.0 1.0 0.00 0.00 0.00 81 1022.5
20260902011523 67 225 0.0 1.0 0.00 0.00 0.00 81 1022.7
20260902011002 68 227 0.0 1.0 0.00 0.00 0.00 80 1022.7
20260902010502 68 223 0.0 1.0 0.00 0.00 0.00 80 1022.4
20260902010025 68 221 1.0 2.0 0.00 0.00 0.00 79 1022.5
20260902005504 69 222 1.0 2.0 0.00 0.00 0.00 79 1022.7
20260902005004 69 221 1.0 2.0 0.00 0.00 0.00 78 1022.5
20260902004504 69 220 1.0 2.0 0.00 0.00 0.00 77 1022.5
20260902004004 69 220 1.0 2.0 0.00 0.00 0.00 78 1022.5
20260902003525 69 223 1.0 1.0 0.00 0.00 0.00 79 1022.5
20260902003004 69 224 1.0 2.0 0.00 0.00 0.00 79 1022.7
20260902002504 69 223 1.0 2.0 0.00 0.00 0.00 78 1022.5
20260902002004 69 225 1.0 1.0 0.00 0.00 0.00 78 1022.8
20260902001504 69 224 1.0 2.0 0.00 0.00 0.00 78 1022.7
20260902001004 69 221 0.0 2.0 0.00 0.00 0.00 78 1022.7
20260902000504 69 216 0.0 2.0 0.00 0.00 0.00 78 1022.5
20260902000004 70 0 0.0 0.0 0.00 0.00 0.00 77 1022.5
20260901235504 70 0 0.0 0.0 0.00 0.00 0.00 77 1022.5
20260901235004 70 202 0.0 1.0 0.00 0.00 0.00 77 1022.5
20260901234504 70 202 0.0 1.0 0.00 0.00 0.00 77 1022.5
20260901234004 70 204 0.0 1.0 0.00 0.00 0.00 76 1022.5
20260901233504 70 209 0.0 1.0 0.00 0.00 0.00 76 1022.4
20260901233004 70 215 0.0 1.0 0.00 0.00 0.00 77 1022.4
20260901232504 70 0 0.0 0.0 0.00 0.00 0.00 77 1022.4
20260901232004 70 226 0.0 1.0 0.00 0.00 0.00 76 1022.5
20260901231504 70 227 0.0 1.0 0.00 0.00 0.00 75 1022.5
20260901231004 70 229 0.0 1.0 0.00 0.00 0.00 75 1022.4
20260901230504 70 230 1.0 1.0 0.00 0.00 0.00 75 1022.2
20260901230004 71 230 1.0 1.0 0.00 0.00 0.00 75 1021.9
20260901225504 71 228 1.0 1.0 0.00 0.00 0.00 75 1022.0
20260901225025 71 227 1.0 2.0 0.00 0.00 0.00 75 1022.1
20260901224525 71 227 1.0 2.0 0.00 0.00 0.00 74 1022.1
20260901224004 71 229 1.0 1.0 0.00 0.00 0.00 75 1022.1
20260901223504 71 232 0.0 1.0 0.00 0.00 0.00 76 1022.1
20260901223025 71 225 0.0 1.0 0.00 0.00 0.00 76 1022.1
20260901222504 71 226 0.0 1.0 0.00 0.00 0.00 75 1022.0
20260901222004 71 223 0.0 1.0 0.00 0.00 0.00 75 1022.0
20260901221504 72 217 0.0 1.0 0.00 0.00 0.00 74 1022.0
20260901221004 72 219 0.0 2.0 0.00 0.00 0.00 74 1022.0
20260901220504 72 219 0.0 2.0 0.00 0.00 0.00 73 1022.3
20260901220004 72 221 0.0 1.0 0.00 0.00 0.00 72 1022.0
20260901215504 72 228 0.0 2.0 0.00 0.00 0.00 72 1022.0
20260901215004 72 230 0.0 2.0 0.00 0.00 0.00 72 1022.0
20260901214525 72 232 0.0 2.0 0.00 0.00 0.00 73 1022.0
20260901214004 72 230 0.0 2.0 0.00 0.00 0.00 73 1021.9
20260901213525 73 223 0.0 1.0 0.00 0.00 0.00 73 1021.9
20260901213004 72 220 0.0 1.0 0.00 0.00 0.00 73 1021.9
20260901212504 73 220 0.0 1.0 0.00 0.00 0.00 72 1021.9
20260901212004 73 221 0.0 1.0 0.00 0.00 0.00 72 1021.7
20260901211504 73 222 0.0 1.0 0.00 0.00 0.00 72 1021.7
20260901211004 73 224 0.0 1.0 0.00 0.00 0.00 72 1021.7
20260901210504 73 223 0.0 1.0 0.00 0.00 0.00 72 1021.7
20260901210025 74 220 0.0 1.0 0.00 0.00 0.00 72 1021.6
20260901205525 74 212 0.0 1.0 0.00 0.00 0.00 71 1021.4
20260901205004 75 208 0.0 1.0 0.00 0.00 0.00 70 1021.6
20260901204504 75 219 0.0 1.0 0.00 0.00 0.00 69 1021.4
20260901204004 75 222 1.0 1.0 0.00 0.00 0.00 69 1021.5
20260901203504 75 221 0.0 1.0 0.00 0.00 0.00 68 1021.4
20260901203004 75 218 0.0 1.0 0.00 0.00 0.00 68 1021.6
20260901202504 76 219 1.0 2.0 0.00 0.00 0.00 68 1021.4
20260901202004 75 220 1.0 2.0 0.00 0.00 0.00 67 1021.3
20260901201504 75 221 1.0 2.0 0.00 0.00 0.00 68 1021.3
20260901201004 75 223 1.0 2.0 0.00 0.00 0.00 68 1021.2
20260901200504 75 227 1.0 2.0 0.00 0.00 0.00 69 1021.1
20260901200004 75 227 1.0 2.0 0.00 0.00 0.00 68 1021.3
20260901195525 76 220 0.0 1.0 0.00 0.00 0.00 67 1021.4
20260901195004 76 217 0.0 1.0 0.00 0.00 0.00 66 1021.1
20260901194525 76 216 0.0 1.0 0.00 0.00 0.00 66 1020.8
20260901194025 76 216 0.0 2.0 0.00 0.00 0.00 66 1020.8
20260901193505 76 219 0.0 2.0 0.00 0.00 0.00 66 1020.7
20260901193004 76 215 0.0 1.0 0.00 0.00 0.00 66 1020.5
20260901192504 77 219 0.0 1.0 0.00 0.00 0.00 65 1020.6
20260901192026 78 195 0.0 1.0 0.00 0.00 0.00 64 1020.6
20260901191504 78 204 0.0 2.0 0.00 0.00 0.00 64 1020.4
20260901191004 78 205 1.0 2.0 0.00 0.00 0.00 63 1020.3
20260901190504 78 201 1.0 2.0 0.00 0.00 0.00 62 1020.4
20260901190004 78 196 0.0 2.0 0.00 0.00 0.00 62 1020.3
20260901185504 78 206 0.0 1.0 0.00 0.00 0.00 62 1020.3
20260901185004 78 224 0.0 2.0 0.00 0.00 0.00 62 1020.2
20260901184504 78 233 1.0 4.0 0.00 0.00 0.00 62 1020.2
20260901184025 79 238 1.0 4.0 0.00 0.00 0.00 62 1020.3
20260901183504 79 253 1.0 6.0 0.00 0.00 0.00 61 1020.4
20260901183004 79 256 2.0 6.0 0.00 0.00 0.00 61 1020.2
20260901182525 79 248 2.0 4.0 0.00 0.00 0.00 60 1020.1
20260901182025 80 262 2.0 4.0 0.00 0.00 0.00 60 1020.3
20260901181504 80 273 2.0 4.0 0.00 0.00 0.00 58 1020.1
20260901181004 81 249 2.0 4.0 0.00 0.00 0.00 58 1020.1
20260901180504 81 237 2.0 3.0 0.00 0.00 0.00 57 1020.1
20260901180025 82 246 1.0 3.0 0.00 0.00 0.00 56 1020.0
20260901175504 82 251 2.0 3.0 0.00 0.00 0.00 56 1020.3
20260901175004 83 258 2.0 6.0 0.00 0.00 0.00 55 1020.1
20260901174504 83 271 3.0 6.0 0.00 0.00 0.00 54 1020.1
20260901174025 84 272 3.0 6.0 0.00 0.00 0.00 53 1020.0
20260901173504 84 271 3.0 7.0 0.00 0.00 0.00 52 1019.9
20260901173004 84 271 3.0 8.0 0.00 0.00 0.00 53 1019.9
20260901172525 84 264 3.0 8.0 0.00 0.00 0.00 52 1019.9
20260901172004 85 266 3.0 7.0 0.00 0.00 0.00 52 1019.9
20260901171504 85 282 4.0 7.0 0.00 0.00 0.00 51 1020.1
20260901171004 85 283 4.0 7.0 0.00 0.00 0.00 51 1020.0
20260901170504 85 277 4.0 7.0 0.00 0.00 0.00 51 1020.0
20260901170004 85 277 4.0 9.0 0.00 0.00 0.00 50 1020.0
20260901165504 85 292 5.0 9.0 0.00 0.00 0.00 50 1020.1